Location: Fours
(44.3167°N, 6.7000°E)
Time: 11:36:29
(UTC+00:00)

Cosmos 2098 - Pass Details

Date: 30 May 2022
Orbit: 387 x 1577 km, 82.9° (Epoch: 30 June)

Event Time Altitude Azimuth Distance (km) Brightness Sun altitude
Rises 02:07:57 0° 3° (N) 2,327 9.0 -14.8°
Reaches altitude 10° 02:10:10 10° 17° (NNE) 1,430 8.1 -14.5°
Maximum altitude 02:12:43 25° 77° (ENE) 831 6.3 -14.3°
Drops below altitude 10° 02:15:21 10° 136° (SE) 1,472 6.9 -14.0°
Sets 02:17:40 0° 150° (SSE) 2,414 7.9 -13.7°
